Find Starlink 35467

NORAD ID: 66343 Int'l Des: 2025-253 Owner: SPXS Country: US Constellation: starlink operational
LEOCIRCULAR

Live Position

Loading 3D Globe...

About Starlink 35467

Description loading...

Upcoming Passes

Passes for default location (London). Set your location on the main map for personalized predictions.

Altitude History

Loading altitude history...

Two-Line Element Set

1 66343U 25253AA 26105.44955068 .00004646 00000-0 17824-3 0 9999
2 66343 43.0052 5.1472 0001490 269.8455 90.2226 15.27583526 25866
Epoch: Apr 15, 2026 • Age: 25 hours

Current Status

Altitude 486.2 km
Velocity 7.62 km/s
Sub-Earth Point -17.81°S, 42.14°W
Launch Date Nov 6, 2025
Age 0.4 years
Type internet

Technical Details

Classification Payload
Mass 575.00 kg
Dry Mass 530.00 kg
Total Mass 575.00 kg
Length 0.30 m
Diameter 4.10 m
Span 29.00 m
Shape Box + pan
Manufacturer SPXS
Bus Type Starlink V2MO
Phase Status In Orbit
Owner/State SPXS/US

Most Searched